SCP
3 3 3 2 1 1 1 1 1 0 0 0 0 0 1 1 0 0 0 0 0 0
1 3 2 2 1 0 1 1 1 0 0 0 0 0 0 0 0 0 0 0 0 0
2 2 1 1 1 0 0 1 1 0 0 0 1 0 0 0 0 0 0 0 0 0
2 1 1 1 1 0 0 0 0 1 1 0 0 0 0 0 0 0 0 0 0 0
1 0 0 0 1 0 0 0 0 0 0 0 0 0 0 0 0 0 0 0 0 0
1 0 0 0 0 0 0 0 0 0 0 0 0 0 0 0 0 0 0 0 0 0
0 -0 0 1 0 0 0 0 0 0 0 0 0 0 0 0 -0 -0 0 0 0 0
0 0 0 0 0 0 0 0 0 0 0 0 0 0 0 0 0 0 0 0 0 0
0 0 1 0 0 0 0 0 0 0 0 0 0 0 0 0 0 0 0 0 0 0
0 0 0 0 0 0 0 0 0 0 0 0 0 0 0 0 0 0 0 0 0 0
0 0 0 0 0 0 0 0 0 0 0 0 0 -0 -0 0 0 0 0 0 0 0
0 0 0 0 0 0 0 0 0 0 0 0 0 0 0 0 0 0 -0 -0 0 0
0 0 0 0 0 0 0 0 0 0 0 0 0 0 0 0 0 0 0 0 -0 0
0 0 0 0 0 0 0 0 0 0 0 0 0 0 0 0 0 0 0 0 0 0
Wind_Speed_500mb
64 64 65 61 57 56 58 70 80 75 61 67 64 70 75 67 69 66 61 55 46 46
68 63 55 49 49 52 47 53 59 74 75 97 80 78 83 75 70 64 57 55 53 46
67 42 38 43 44 42 37 46 52 62 67 71 87 90 88 67 63 62 56 51 51 44
35 37 36 36 30 33 36 37 43 50 57 58 76 101 76 72 45 49 50 47 44 36
32 36 35 33 28 29 29 29 32 30 41 39 45 58 68 33 44 34 28 40 40 37
38 54 35 39 31 28 25 32 26 26 25 27 36 49 52 65 58 48 33 45 38 37
40 60 59 39 33 27 23 31 38 34 36 36 46 50 56 71 66 51 53 43 38 40
22 38 46 43 40 29 22 32 38 45 48 57 61 55 67 68 67 63 61 56 52 49
26 18 41 46 43 29 29 40 43 44 45 61 72 77 68 69 70 70 69 69 63 55
32 19 27 42 46 36 33 43 60 52 64 64 49 58 75 83 81 70 75 69 65 50
26 18 30 43 42 32 34 43 57 69 65 67 68 62 66 63 76 77 67 67 57 46
23 17 28 37 34 23 53 60 60 61 64 64 70 70 71 68 78 84 73 57 58 59
20 22 35 50 54 50 56 56 56 57 57 53 59 69 68 83 94 85 70 68 64 59
26 25 42 57 46 60 64 66 61 59 57 58 65 74 82 86 84 79 83 78 70 64
Wind_Direction_500mb
239 250 256 252 252 254 253 246 248 242 216 221 230 221 225 225 216 218 217 207 206 205
237 244 251 249 258 256 251 244 252 246 236 236 231 220 222 213 207 210 209 208 208 207
234 246 255 256 261 255 243 236 239 235 214 224 225 218 210 206 213 207 200 203 205 205
230 248 256 259 258 255 244 233 236 231 240 234 208 220 205 185 204 205 194 191 198 202
217 246 240 251 249 240 236 227 229 236 235 219 146 146 151 170 175 193 213 198 198 187
231 241 244 242 240 225 225 219 214 212 213 217 199 203 206 190 197 196 216 199 192 174
203 213 223 226 230 222 202 205 204 208 205 192 176 167 171 177 180 187 203 184 178 162
201 228 217 213 230 223 212 206 204 195 183 183 189 192 183 178 183 184 173 167 165 154
282 262 216 207 214 213 216 183 190 186 187 182 179 169 178 183 178 171 167 166 158 158
280 270 210 205 207 205 200 180 179 186 173 166 179 192 184 178 169 170 165 163 160 160
267 270 208 212 200 195 177 169 161 158 156 161 160 163 165 169 166 166 165 167 162 154
256 258 208 199 183 207 178 173 173 176 171 172 171 178 174 172 163 160 160 155 147 147
234 232 189 175 172 207 197 184 181 177 181 184 174 177 180 167 163 156 148 146 146 147
218 204 189 177 195 188 183 176 175 178 174 172 169 165 166 167 163 160 152 150 150 143
Wind_Speed_850mb
64 64 65 61 57 56 58 70 80 75 61 67 64 70 75 67 69 66 61 55 46 46
68 63 55 49 49 52 47 53 59 74 75 97 80 78 83 75 70 64 57 55 53 46
67 42 38 43 44 42 37 46 52 62 67 71 87 90 88 67 63 62 56 51 51 44
35 37 36 36 30 33 36 37 43 50 57 58 76 101 76 72 45 49 50 47 44 36
32 36 35 33 28 29 29 29 32 30 41 39 45 58 68 33 44 34 28 40 40 37
38 54 35 39 31 28 25 32 26 26 25 27 36 49 52 65 58 48 33 45 38 37
40 60 59 39 33 27 23 31 38 34 36 36 46 50 56 71 66 51 53 43 38 40
22 38 46 43 40 29 22 32 38 45 48 57 61 55 67 68 67 63 61 56 52 49
26 18 41 46 43 29 29 40 43 44 45 61 72 77 68 69 70 70 69 69 63 55
32 19 27 42 46 36 33 43 60 52 64 64 49 58 75 83 81 70 75 69 65 50
26 18 30 43 42 32 34 43 57 69 65 67 68 62 66 63 76 77 67 67 57 46
23 17 28 37 34 23 53 60 60 61 64 64 70 70 71 68 78 84 73 57 58 59
20 22 35 50 54 50 56 56 56 57 57 53 59 69 68 83 94 85 70 68 64 59
26 25 42 57 46 60 64 66 61 59 57 58 65 74 82 86 84 79 83 78 70 64
Wind_Direction_850mb
239 250 256 252 252 254 253 246 248 242 216 221 230 221 225 225 216 218 217 207 206 205
237 244 251 249 258 256 251 244 252 246 236 236 231 220 222 213 207 210 209 208 208 207
234 246 255 256 261 255 243 236 239 235 214 224 225 218 210 206 213 207 200 203 205 205
230 248 256 259 258 255 244 233 236 231 240 234 208 220 205 185 204 205 194 191 198 202
217 246 240 251 249 240 236 227 229 236 235 219 146 146 151 170 175 193 213 198 198 187
231 241 244 242 240 225 225 219 214 212 213 217 199 203 206 190 197 196 216 199 192 174
203 213 223 226 230 222 202 205 204 208 205 192 176 167 171 177 180 187 203 184 178 162
201 228 217 213 230 223 212 206 204 195 183 183 189 192 183 178 183 184 173 167 165 154
282 262 216 207 214 213 216 183 190 186 187 182 179 169 178 183 178 171 167 166 158 158
280 270 210 205 207 205 200 180 179 186 173 166 179 192 184 178 169 170 165 163 160 160
267 270 208 212 200 195 177 169 161 158 156 161 160 163 165 169 166 166 165 167 162 154
256 258 208 199 183 207 178 173 173 176 171 172 171 178 174 172 163 160 160 155 147 147
234 232 189 175 172 207 197 184 181 177 181 184 174 177 180 167 163 156 148 146 146 147
218 204 189 177 195 188 183 176 175 178 174 172 169 165 166 167 163 160 152 150 150 143